Regional Weather Roundup
Issued by NWS Green Bay, WI

Home | Current Version | Previous Version | Graphics & Text | Print | Product List | Glossary Off
Versions: 1 2 3 4 5 6 7 8 9 10 11 12 13 14 15 16 17 18 19 20 21 22 23 24 25 26 27 28 29 30 31 32 33 34 35 36 37 38 39 40 41 42 43 44 45 46 47 48 49 50

000
ASUS43 KGRB 221200
RWRGRB

NORTH-CENTRAL AND NORTHEAST WISCONSIN REGIONAL WEATHER ROUNDUP
NATIONAL WEATHER SERVICE GREEN BAY WI
600 AM CST WED NOV 22 2017

WIZ005-009-010>012-018-019-221300-
NORTH CENTRAL WISCONSIN

CITY           SKY/WX    TMP DP  RH WIND       PRES   REMARKS
IRONWOOD       CLOUDY    14   9  80 SW7       30.24S WCI   4
MANITOWISH WTR NOT AVBL
ARBOR VITAE    NOT AVBL
EAGLE RIVER    CLOUDY    17  11  77 W7        30.20R WCI   8
LAND O LAKES   NOT AVBL
RHINELANDER    CLOUDY    18  12  77 W7        30.22R WCI   9
PHILLIPS       CLOUDY    12   9  86 CALM      30.23S
ANTIGO         NOT AVBL
TOMAHAWK       NOT AVBL
MERRILL        CLOUDY    15   9  75 W3        30.25F
$$

WIZ013-073-221300-
NORTHEAST WISCONSIN

CITY           SKY/WX    TMP DP  RH WIND       PRES   REMARKS
IRON MOUNTAIN  CLOUDY    22  13  68 W3        30.21S
MARINETTE      CLOUDY    24  14  65 CALM      30.27F
$$

WIZ017-030-035>037-045-221300-
CENTRAL WISCONSIN

CITY           SKY/WX    TMP DP  RH WIND       PRES   REMARKS
MEDFORD        NOT AVBL
WAUSAU         CLOUDY    16   9  74 W5        30.25S WCI   9
MOSINEE        PTCLDY    16  10  79 W5        30.27S WCI   9
MARSHFIELD     CLOUDY    16   8  71 CALM      30.25F
WISC RAPIDS    CLOUDY    13   9  84 W3        30.30F
STEVENS POINT  NOT AVBL
WAUPACA        NOT AVBL
SHAWANO        CLOUDY    24  14  66 W5        30.27F
CLINTONVILLE   NOT AVBL
WAUTOMA        CLOUDY    14  10  84 CALM      30.31F
$$

WIZ038-039-048-051-221300-
FOX VALLEY

CITY           SKY/WX    TMP DP  RH WIND       PRES   REMARKS
NWS GREEN BAY  CLOUDY    24  16  71 NW3       30.29S
APPLETON       PTCLDY    19  12  73 W6        30.27S
OSHKOSH        CLEAR     16  11  80 W5        30.29S WCI   9
FOND DU LAC    FLURRIES  17  10  74 W6        30.30S WCI   9
$$

WIZ022-050-052-221300-
EAST CENTRAL WISCONSIN

CITY           SKY/WX    TMP DP  RH WIND       PRES   REMARKS
EPHRAIM        NOT AVBL
WASHINGTON ISL NOT AVBL
STURGEON BAY   FLURRIES  25  14  63 NW9       30.27S
MANITOWOC      CLOUDY    24  15  68 W6        30.30S
SHEBOYGAN      MOCLDY    20  14  77 NW5       30.30R
$$

LMZ563-521-522-541>543-221300-
LAKESHORE

STATION/POSITION TIME  TEMP    WIND        PRES    VSBY  WAVE
                       AIR SEA DIR/SP/G                  HT/PER
                 (UTC) (F)     (DEG/KT/KT) (MB)    (MI)  (FT/S)
SHEBOYGAN LKSHOR 1100   23     290/  8/  9 1026.9R
KEWAUNEE LKSHORE 1130   26     330/  5/ 13 1024.8R
NORTHPORT PIER   1150   28     330/ 10/ 21 1024.0S
N MID LAKE BUOY  1050   28 47  310/ 16/ 19 1024.8R         4/ 4
SISTER BAY LKSHO 1119          320/ 16/ 21   N/A
MENOMINEE LKSHOR 1130   25     290/  7/  9 1024.6F
$$




USA.gov is the U.S. government's official web portal to all federal, state and local government web resources and services.